CAPE
2576 2053 1686 1462 927 822 918 611 353 100 1 0 1 0 0 0 0 0 0 0 0 0 0 0 0 0 0 0 0 0 0 0 0 0 0 0 0 0 0 0 0 0 1
1717 1330 1434 1120 1196 929 778 406 210 38 3 1 0 0 0 0 0 0 0 0 0 0 0 0 0 1 1 0 0 0 0 0 0 0 0 0 0 0 0 0 0 0 0
1185 1165 1207 1321 900 473 195 89 5 1 1 0 0 0 0 0 0 0 0 0 0 0 0 0 0 0 0 0 0 0 0 0 0 0 0 0 0 0 0 0 0 0 0
885 1020 893 493 248 101 26 1 1 0 0 0 0 0 0 0 0 0 0 0 0 1 1 0 0 0 0 0 0 0 0 0 0 0 0 0 0 0 0 0 0 0 0
659 378 89 34 2 0 0 2 2 1 0 0 0 0 0 0 0 0 0 0 0 0 0 0 0 0 0 0 0 0 0 0 0 0 0 0 0 0 0 0 0 0 0
81 5 4 1 1 2 0 1 0 0 0 0 0 0 0 0 0 0 0 0 0 0 0 0 0 0 0 0 0 0 0 0 0 0 0 0 0 0 0 0 0 0 0
5 3 1 0 1 0 0 0 0 0 0 0 0 0 0 0 0 0 0 0 0 0 0 0 0 0 0 0 0 0 0 0 0 0 0 0 0 0 0 0 0 0 1
2 1 0 0 0 0 0 0 0 0 0 0 0 0 0 0 0 0 0 0 0 0 0 0 0 0 0 0 0 0 0 0 0 0 0 0 0 0 0 0 0 0 0
1 0 0 0 0 0 0 0 0 0 0 0 0 0 0 0 0 0 0 0 0 0 0 0 0 0 0 0 0 0 0 0 0 0 0 0 0 0 0 0 0 0 0
0 0 0 0 0 0 0 0 0 0 0 0 0 0 0 0 0 0 0 0 0 0 0 0 0 0 0 0 0 0 0 0 0 0 0 0 0 0 0 0 0 0 0
0 0 0 0 0 0 0 0 0 0 0 0 0 0 0 0 0 0 0 0 0 0 0 0 0 0 0 0 0 0 0 0 0 0 0 0 0 0 0 0 0 0 0
0 0 0 0 0 0 0 0 0 0 0 0 0 0 0 0 0 0 0 0 0 0 0 0 0 0 0 0 0 0 0 0 0 0 0 0 0 0 0 0 0 0 0
0 0 0 0 0 0 0 0 0 0 0 0 0 0 0 0 0 0 0 0 0 0 0 0 0 0 0 0 0 0 0 0 0 0 0 0 0 0 0 0 0 0 0
0 0 0 0 0 0 0 0 0 0 0 0 0 0 0 0 0 0 0 0 0 0 0 0 0 0 0 0 0 0 0 0 0 0 0 0 0 0 0 0 0 0 0
0 0 0 0 0 0 0 0 0 0 0 0 0 0 0 0 0 0 0 0 0 0 0 0 0 0 0 0 0 0 0 0 0 0 0 0 0 0 0 0 0 0 0
0 0 0 0 0 0 0 0 0 0 0 0 0 0 0 0 0 0 0 0 0 0 0 0 0 0 0 0 0 0 0 0 0 0 0 0 0 0 0 0 0 0 0
0 0 0 0 0 0 0 0 0 0 0 0 0 0 0 0 0 0 0 0 0 0 0 0 0 0 0 0 0 0 0 0 0 0 0 0 0 0 0 0 0 0 0
0 0 0 0 0 0 0 0 0 0 0 0 0 0 0 0 0 0 0 0 0 0 0 0 0 0 0 0 0 0 0 0 0 0 0 0 0 0 0 0 0 0 0
0 0 0 0 0 0 0 0 0 0 0 0 0 0 0 0 0 0 0 0 0 0 0 0 0 0 0 0 0 0 0 0 0 0 0 0 1 1 0 0 0 0 0
0 0 0 0 0 0 0 0 0 0 0 0 0 0 0 0 0 0 0 0 0 0 0 0 0 0 0 0 0 0 0 0 0 0 0 0 2 2 0 0 0 0 0
0 0 0 0 0 0 0 0 0 0 0 0 0 0 0 0 0 0 0 0 0 0 0 0 0 0 0 0 0 0 0 0 0 0 0 0 2 3 0 0 0 0 0
0 0 0 0 0 0 0 0 0 0 0 0 0 0 0 0 0 0 0 0 0 0 0 0 0 0 0 0 0 0 0 0 0 0 0 0 0 4 0 0 0 0 0
0 0 0 0 0 0 0 0 0 0 0 0 0 0 0 0 0 0 0 0 0 0 0 0 0 0 0 0 0 0 0 0 0 0 0 0 0 0 0 0 0 0 0
0 0 0 0 0 0 0 0 0 0 0 0 0 0 0 0 0 0 0 0 0 0 0 0 0 0 0 0 0 0 0 0 0 0 0 0 0 0 0 0 0 0 0
0 0 0 0 0 0 0 0 0 0 0 0 0 0 0 0 0 0 0 0 0 0 0 0 0 0 0 0 0 0 0 0 0 0 0 0 0 0 0 0 0 0 0
0 0 0 0 0 0 0 0 0 0 0 0 0 0 0 0 0 0 0 0 0 0 0 0 0 0 0 0 0 0 0 0 0 0 0 0 0 0 0 0 0 0 0
CIN
-15 -34 -156 -192 -222 -199 -129 -132 -142 -199 -0 -0 -0 -0 -0 -0 -0 -0 -0 -0 -0 -0 -0 -0 -0 -0 -0 -0 -0 -0 -0 -0 -0 -0 -0 -0 -0 -0 -0 -0 -0 -0 -0
-76 -192 -225 -214 -149 -168 -135 -170 -191 -224 -0 -1 -0 -0 -0 -0 -0 -0 -0 -0 -0 -0 -0 -0 -0 -0 -1 -0 -0 -1 -0 -0 -0 -0 -0 -0 -0 -0 -0 -0 -0 -0 -0
-192 -256 -214 -136 -211 -233 -284 -244 -204 -0 -0 -0 -0 -0 -0 -0 -0 -0 -0 -0 -0 -0 -0 -1 -0 -0 -0 -0 -0 -0 -0 -0 -0 -0 -0 -0 -0 -0 -0 -0 -0 -0 -0
-227 -219 -241 -315 -357 -383 -255 -1 -0 -0 -0 -0 -0 -0 -0 -0 -0 -0 -0 -0 -0 -1 -0 -0 -0 -0 -0 -0 -0 -0 -0 -0 -0 -0 -0 -0 -0 -0 -0 -0 -0 -0 -0
-269 -390 -508 -597 -0 -0 -0 -0 -0 -1 -0 -0 -0 -0 -0 -0 -0 -0 -0 -0 -1 -0 -0 -0 -0 -0 -0 -0 -0 -0 -0 -0 -0 -0 -0 -0 -0 -0 -0 -0 -0 -0 -0
-569 -0 -0 -0 -0 -0 -0 -0 -0 -0 -0 -0 -0 -0 -0 -0 -0 -0 -0 -0 -0 -0 -0 -0 -0 -0 -0 -0 -0 -0 -0 -0 -0 -0 -0 -0 -0 -0 -0 -0 -0 -0 -0
-0 -0 -0 -0 -0 -0 -0 -0 -0 -0 -0 -0 -0 -0 -0 -0 -0 -0 -0 -0 -0 -0 -0 -0 -0 -0 -0 -0 -0 -0 -0 -0 -0 -0 -0 -0 -0 -0 -0 -0 -0 -3 -0
-0 -0 -0 -0 -0 -0 -0 -0 -0 -0 -0 -0 -0 -0 -0 -0 -0 -0 -0 -0 -0 -0 -0 -0 -0 -0 -0 -0 -0 -0 -0 -0 -0 -0 -0 -0 -0 -0 -0 -0 -0 -0 -0
-0 -0 -0 -0 -0 -0 -0 -0 -0 -0 -0 -0 -0 -0 -0 -0 -0 -0 -0 -0 -0 -0 -0 -0 -0 -0 -0 -0 -0 -0 -0 -0 -0 -0 -0 -0 -0 -0 -0 -0 -0 -0 -0
-0 -0 -0 -0 -0 -0 -0 -0 -0 -0 -0 -0 -0 -0 -0 -0 -0 -0 -0 -0 -0 -0 -0 -0 -0 -0 -0 -0 -0 -0 -0 -0 -0 -0 -0 -0 -0 -0 -0 -0 -0 -0 -0
-0 -0 -0 -0 -0 -0 -0 -0 -0 -0 -0 -0 -0 -0 -0 -0 -0 -0 -0 -0 -0 -0 -0 -0 -0 -0 -0 -0 -0 -0 -0 -0 -0 -0 -0 -0 -0 -0 -0 -0 -0 -0 -0
-0 -0 -0 -0 -0 -0 -0 -0 -0 -0 -0 -0 -0 -0 -0 -0 -0 -0 -0 -0 -0 -0 -0 -0 -0 -0 -0 -0 -0 -0 -0 -0 -0 -0 -0 -0 -0 -0 -0 -0 -0 -0 -0
-0 -0 -0 -0 -0 -0 -0 -0 -0 -0 -0 -0 -0 -0 -0 -0 -0 -0 -0 -0 -0 -0 -0 -0 -0 -0 -0 -0 -0 -0 -0 -0 -0 -0 -0 -0 -0 -0 -0 -0 -0 -0 -0
-0 -0 -0 -0 -0 -0 -0 -0 -0 -0 -0 -0 -0 -0 -0 -0 -0 -0 -0 -0 -0 -0 -0 -0 -0 -0 -0 -0 -0 -0 -0 -0 -0 -0 -0 -0 -0 -0 -0 -0 -0 -0 -0
-0 -0 -0 -0 -0 -0 -0 -0 -0 -0 -0 -0 -0 -0 -0 -0 -0 -0 -0 -0 -0 -0 -0 -0 -0 -0 -0 -0 -0 -0 -0 -0 -0 -0 -0 -0 -0 -0 -0 -0 -0 -0 -0
-0 -0 -0 -0 -0 -0 -0 -0 -0 -0 -0 -0 -0 -0 -0 -0 -0 -0 -0 -0 -0 -0 -0 -0 -0 -0 -0 -0 -0 -0 -0 -0 -0 -0 -0 -0 -0 -0 -0 -0 -0 -0 -0
-0 -0 -0 -0 -0 -0 -0 -0 -0 -0 -0 -0 -0 -0 -0 -0 -0 -0 -0 -0 -0 -0 -0 -0 -0 -0 -0 -0 -0 -0 -0 -0 -0 -0 -0 -0 -0 -0 -0 -0 -0 -0 -0
-0 -0 -0 -0 -0 -0 -0 -0 -0 -0 -0 -0 -0 -0 -0 -0 -0 -0 -0 -0 -0 -0 -0 -0 -0 -0 -0 -0 -0 -0 -0 -0 -0 -0 -0 -0 -0 -0 -0 -0 -0 -0 -0
-0 -0 -0 -0 -0 -0 -0 -0 -0 -0 -0 -0 -0 -0 -0 -0 -0 -0 -0 -0 -0 -0 -0 -0 -0 -0 -0 -0 -0 -0 -0 -0 -0 -0 -0 -0 -0 -0 -0 -0 -0 -0 -0
-0 -0 -0 -0 -0 -0 -0 -0 -0 -0 -0 -0 -0 -0 -0 -0 -0 -0 -0 -0 -0 -0 -0 -0 -0 -0 -0 -0 -0 -0 -0 -0 -0 -0 -0 -0 -0 -1 -0 -0 -0 -0 -0
-0 -0 -0 -0 -0 -0 -0 -0 -0 -0 -0 -0 -0 -0 -0 -0 -0 -0 -0 -0 -0 -0 -0 -0 -0 -0 -0 -0 -0 -0 -0 -0 -0 -0 -0 -0 -0 -0 -0 -0 -0 -0 -0
-0 -0 -0 -0 -0 -0 -0 -0 -0 -0 -0 -0 -0 -0 -0 -0 -0 -0 -0 -0 -0 -0 -0 -0 -0 -0 -0 -0 -0 -0 -0 -0 -0 -0 -0 -0 -0 -0 -0 -0 -0 -0 -0
-0 -0 -0 -0 -0 -0 -0 -0 -0 -0 -0 -0 -0 -0 -0 -0 -0 -0 -0 -0 -0 -0 -0 -0 -0 -0 -0 -0 -0 -0 -0 -0 -0 -0 -0 -0 -0 -0 -0 -0 -0 -0 -0
-0 -0 -0 -0 -0 -0 -0 -0 -0 -0 -0 -0 -0 -0 -0 -0 -0 -0 -0 -0 -0 -0 -0 -0 -0 -0 -0 -0 -0 -0 -0 -0 -0 -0 -0 -0 -0 -0 -0 -0 -0 -0 -0
-0 -0 -0 -0 -0 -0 -0 -0 -0 -0 -0 -0 -0 -0 -0 -0 -0 -0 -0 -0 -0 -0 -0 -0 -0 -0 -0 -0 -0 -0 -0 -0 -0 -0 -0 -0 -0 -0 -0 -0 -0 -0 -0
-0 -0 -0 -0 -0 -0 -0 -0 -0 -0 -0 -0 -0 -0 -0 -0 -0 -0 -0 -0 -0 -0 -0 -0 -0 -0 -0 -0 -0 -0 -0 -0 -0 -0 -0 -0 -0 -0 -0 -0 -0 -0 -0
Wind_Speed
28 24 19 15 12 10 7 7 5 5 4 5 5 6 8 9 10 11 13 14 16 19 22 25 27 27 27 28 28 29 29 31 32 33 33 35 33 34 33 36 33 32 35
28 23 18 15 13 9 8 7 7 6 6 5 6 8 8 9 10 12 14 15 17 19 22 25 27 27 28 28 28 30 30 31 32 34 34 34 34 34 38 37 34 36 35
26 22 18 15 12 10 9 8 8 7 6 7 8 8 8 10 12 13 14 16 18 19 22 25 26 28 28 29 29 30 31 31 31 33 34 33 34 37 41 35 38 36 36
23 20 18 15 13 11 10 7 8 7 7 8 8 9 9 10 11 13 14 15 17 20 22 24 26 27 29 30 30 31 31 32 32 33 34 34 35 39 36 41 42 41 42
22 20 18 15 13 12 10 8 8 7 8 8 9 9 9 11 13 13 14 16 18 20 22 23 26 28 28 26 30 31 31 33 33 34 34 34 37 41 42 42 43 43 43
21 20 18 16 13 12 9 8 8 8 8 8 8 8 9 11 14 16 15 17 19 21 22 24 23 29 30 29 24 26 26 31 33 34 33 36 37 38 40 42 41 46 45
21 20 18 16 14 12 10 9 8 8 8 8 8 9 10 11 14 16 17 18 20 22 23 25 26 29 32 31 30 30 28 23 26 31 33 34 37 38 35 40 40 35 41
21 19 17 16 14 12 11 8 9 9 8 8 9 9 10 12 14 16 18 19 20 22 24 25 26 29 33 32 31 32 31 29 31 30 30 31 32 31 31 33 27 35 35
21 19 18 16 14 12 10 9 9 9 9 9 10 10 11 12 15 17 17 18 19 21 24 26 27 29 33 34 32 33 32 31 30 29 28 26 27 27 27 31 42 44 42
20 18 17 15 15 13 13 11 11 10 10 10 10 11 12 13 17 19 20 16 18 20 21 23 28 29 32 34 33 33 33 34 31 34 34 35 37 37 37 37 41 45 40
19 19 17 15 15 14 13 11 10 10 11 11 10 11 13 14 17 20 22 19 19 20 22 24 27 27 29 32 32 32 32 31 33 35 37 38 39 40 39 39 37 34 35
20 19 19 17 14 13 12 11 11 11 10 10 10 12 14 16 17 19 21 22 22 21 23 24 26 27 25 26 31 32 33 34 35 37 39 40 41 42 40 38 33 35 32
22 21 18 16 13 12 12 11 10 9 9 9 11 13 14 15 18 20 21 20 20 22 23 23 24 24 26 24 23 30 34 36 36 38 40 41 42 41 38 37 35 40 34
22 20 17 14 13 11 10 9 8 8 9 11 12 13 13 15 17 16 17 18 18 21 21 23 24 23 24 27 31 32 35 36 37 39 40 41 41 42 43 41 42 45 38
20 17 16 12 10 8 7 7 9 11 11 11 12 13 14 16 18 19 19 20 21 22 23 24 26 27 29 30 31 33 34 37 38 39 40 42 44 43 44 42 43 45 42
18 14 11 11 9 9 9 13 15 16 16 17 16 16 17 18 18 19 20 22 23 22 23 25 26 28 29 31 32 34 35 38 39 40 41 42 44 44 45 44 44 47 47
15 14 12 11 9 9 11 11 12 15 18 18 18 19 18 17 18 19 20 23 25 24 25 25 27 28 29 31 32 34 35 37 38 40 41 42 45 43 45 45 45 47 48
14 13 10 10 15 15 14 14 15 14 15 16 17 18 18 18 18 18 18 19 22 24 25 26 27 28 29 31 32 34 35 38 39 40 41 42 45 44 45 45 45 44 45
9 11 17 17 15 15 15 15 15 16 16 16 17 18 18 18 19 20 21 22 22 24 25 26 27 28 30 31 32 34 35 37 39 39 40 42 44 44 44 45 44 39 41
12 15 16 17 16 16 17 16 16 15 16 15 15 16 16 15 19 20 21 22 23 24 24 25 27 28 30 31 33 34 36 37 39 39 40 41 42 43 44 44 43 41 41
18 18 18 19 18 17 16 16 16 16 16 16 17 17 18 18 18 20 20 22 22 23 25 26 27 28 30 31 33 34 36 37 39 39 40 41 41 42 44 44 42 43 41
20 20 19 18 17 17 16 17 17 17 17 17 17 17 17 18 18 19 20 21 22 23 24 26 27 29 30 32 33 35 36 37 39 39 41 40 39 40 43 44 43 44 42
18 18 17 16 17 18 18 18 17 17 17 16 16 16 17 18 18 19 19 21 22 23 24 26 27 29 30 31 32 34 35 37 38 39 41 39 39 42 43 44 43 43 42
16 16 18 18 18 17 17 18 18 17 17 16 16 17 17 17 17 18 19 20 22 23 24 25 27 29 30 30 32 34 34 36 36 38 38 38 39 42 43 44 43 43 41
18 17 17 17 17 17 17 17 17 16 16 16 16 16 16 16 17 18 19 21 22 23 24 25 26 28 29 29 33 35 34 36 37 39 37 36 39 42 42 43 43 43 42
16 16 16 17 16 16 16 16 16 15 15 16 16 16 16 16 17 18 20 21 23 24 24 25 26 28 28 27 33 34 34 36 37 39 37 35 40 41 42 42 42 41 41
Wind_Direction
198 195 188 185 182 176 176 158 148 130 103 80 67 60 53 42 37 30 38 28 12 5 354 351 352 356 358 359 358 358 357 355 352 353 353 354 355 355 355 354 355 355 354
195 189 186 183 176 170 162 151 133 116 93 76 76 57 50 38 34 34 18 16 12 7 2 354 357 0 359 0 1 359 358 359 356 353 355 356 357 357 354 354 358 356 357
191 185 182 181 169 164 149 138 123 107 89 86 79 63 52 39 37 26 18 17 12 7 3 2 3 2 1 1 1 360 1 1 360 357 356 358 358 356 353 357 355 356 357
190 183 177 173 162 153 141 131 116 103 93 90 72 60 43 37 30 22 24 18 14 10 10 9 5 4 1 1 2 2 3 2 3 1 360 360 359 355 357 353 351 351 354
181 179 173 163 154 146 134 121 106 95 90 84 72 52 45 35 20 29 22 17 13 9 10 11 8 6 5 8 5 5 6 4 3 3 2 1 359 355 353 350 348 348 353
181 178 165 157 153 141 130 117 102 96 89 75 56 47 35 20 14 8 19 15 11 8 6 6 13 5 2 4 12 10 9 6 5 4 3 360 358 357 354 352 351 346 349
175 172 164 158 147 137 127 114 103 97 83 68 53 44 35 24 13 8 13 16 11 8 6 6 6 3 1 3 6 7 9 13 12 7 4 1 357 358 0 354 354 357 353
175 172 164 155 148 136 126 117 104 93 75 60 49 40 35 26 12 12 12 17 13 11 10 10 8 4 0 4 7 6 7 9 8 8 7 3 2 3 3 1 1 358 358
173 166 161 156 148 137 128 116 101 88 70 58 50 43 36 21 6 2 11 17 15 16 15 11 9 7 4 4 9 8 9 9 11 10 9 8 7 6 6 4 354 348 355
172 164 156 151 141 132 122 109 94 81 71 62 48 35 29 18 2 359 358 16 16 16 16 16 11 9 8 9 10 10 10 10 11 8 7 7 5 4 6 4 358 348 359
162 153 146 142 131 121 111 101 88 77 71 60 43 27 21 16 4 2 360 13 14 13 12 13 9 13 15 15 15 14 13 12 9 7 5 4 3 3 6 6 7 8 6
152 145 139 131 122 113 104 91 83 77 67 53 43 34 27 21 14 10 10 13 12 16 13 12 13 15 19 21 18 15 13 11 8 5 3 2 1 0 5 8 12 11 10
146 141 133 124 115 106 98 90 81 69 56 45 42 44 39 32 28 28 29 25 22 21 20 21 20 21 20 23 23 15 12 9 7 5 2 0 1 2 7 10 13 9 13
139 133 130 123 112 99 88 77 68 51 48 51 47 41 37 30 23 24 28 25 24 18 22 19 21 22 22 19 13 10 9 6 5 4 3 2 2 3 2 7 6 3 12
133 131 123 114 102 86 54 37 27 18 49 52 47 37 29 22 20 19 19 19 20 21 17 19 17 16 14 11 10 8 6 4 4 4 3 0 359 359 359 5 3 2 9
130 128 121 109 98 83 69 55 39 41 41 39 35 37 35 42 36 31 28 25 21 20 23 19 16 14 11 8 6 3 3 2 1 2 2 0 357 358 354 357 359 358 359
122 116 106 98 86 74 75 67 59 41 41 40 41 42 41 42 37 35 31 23 18 23 21 19 15 12 9 5 2 1 360 0 360 0 0 360 357 358 352 351 352 351 352
109 101 96 88 86 81 76 73 68 61 53 47 40 42 44 45 42 39 35 28 26 23 20 15 13 10 7 4 1 360 358 358 358 358 358 358 357 356 352 348 346 337 337
101 88 88 87 81 80 75 69 66 65 60 55 53 50 53 54 47 35 28 27 24 19 16 14 11 8 5 3 0 359 359 358 357 357 357 357 358 355 352 347 342 329 332
85 85 83 83 80 77 75 70 66 62 59 54 50 50 48 50 32 28 25 23 21 20 18 14 11 8 5 2 0 359 358 358 357 356 357 358 359 355 347 344 337 334 335
88 86 83 81 79 74 69 64 59 55 49 46 39 39 36 37 33 27 25 24 22 20 16 13 11 8 4 3 1 359 358 358 357 358 358 358 358 358 347 348 334 342 334
86 84 79 74 71 67 64 61 59 54 51 51 52 48 38 36 30 27 24 20 18 17 14 11 9 8 5 3 1 359 359 357 357 357 353 357 1 1 352 344 338 341 335
77 75 71 63 62 66 64 59 56 55 55 55 51 43 36 31 28 24 20 17 15 13 12 12 10 7 5 4 3 1 1 358 357 354 352 356 358 354 351 346 338 338 335
65 64 70 72 65 62 59 54 53 54 54 48 41 37 32 27 22 17 15 13 11 12 12 11 9 6 5 5 5 2 3 359 360 357 356 356 355 350 348 343 339 336 335
69 64 61 62 60 57 60 58 57 52 46 42 39 36 31 25 20 15 11 9 9 10 9 9 7 5 5 7 3 0 1 0 359 356 357 357 351 346 347 341 338 337 336
58 60 56 56 57 55 54 54 51 46 43 42 44 41 36 29 21 16 11 8 5 7 7 6 7 5 6 9 2 2 3 359 357 355 356 357 349 345 343 338 336 335 333